Date String (YYYY-MM-DD hh:mm:ss) UTC,Instrument flags,Ambient pressure (hPa),Sample flow (lpm),Bypass flow (lpm),Sample temperature (°C),Ambient temperature (°C),ASC tube jacket temperature (°C),LED temperature (°C),Box temperature (°C),Sample RH (%),Span deviation,Mass concentration (μg/m³),Mass concentration (μg/m³),Mass concentration (μg/m³)
DateTimeUTC,F1_M11,P_M11,Q1_M11,Q2_M11,T1_M11,T2_M11,T3_M11,T4_M11,T5_M11,U1_M11,ZSPAN_M11,X0_M11,X2_M11,X1_M11
2021-11-06 14:00:00,,0827.7,5.00,0.00,26.7,25.7,00.0,35.8,28.4,07.6,0000.0,0003.43,0001.54,0001.06
2021-11-06 14:01:00,,0827.7,5.01,0.00,26.7,25.8,00.0,35.8,28.4,07.9,0000.0,0003.61,0001.62,0001.07
2021-11-06 14:02:00,,0827.7,4.98,0.00,26.7,25.8,00.0,35.8,28.4,07.7,0000.0,0003.58,0001.61,0001.08
2021-11-06 14:03:00,,0827.8,5.02,0.00,26.7,25.8,00.0,35.8,28.5,07.6,0000.0,0003.44,0001.57,0001.08
2021-11-06 14:04:00,,0827.9,4.99,0.00,26.7,25.8,00.0,35.8,28.4,07.6,0000.0,0003.57,0001.51,0001.08
2021-11-06 14:05:00,,0827.9,5.00,0.00,26.7,25.8,00.0,35.8,28.4,07.7,0000.0,0003.46,0001.47,0001.07
2021-11-06 14:06:00,,0827.9,5.01,0.00,26.7,25.8,00.0,35.7,28.4,07.6,0000.0,0003.39,0001.43,0001.05
2021-11-06 14:07:00,,0827.8,4.98,0.00,26.7,25.7,00.0,35.7,28.3,07.8,0000.0,0002.61,0001.42,0001.06
2021-11-06 14:08:00,,0827.8,5.00,0.00,26.7,25.7,00.0,35.7,28.4,07.7,0000.0,0002.92,0001.39,0001.04
2021-11-06 14:09:00,,0827.8,5.01,0.00,26.7,25.8,00.0,35.7,28.4,07.7,0000.0,0003.88,0001.42,0001.05
2021-11-06 14:10:00,,0827.8,5.00,0.00,26.7,25.8,00.0,35.7,28.5,07.8,0000.0,0004.01,0001.48,0001.06
2021-11-06 14:11:00,,0827.8,5.00,0.00,26.7,25.8,00.0,35.7,28.5,07.8,0000.0,0004.01,0001.48,0001.07
2021-11-06 14:12:00,,0827.8,5.00,0.00,26.7,25.8,00.0,35.7,28.5,07.8,0000.0,0003.92,0001.46,0001.09
2021-11-06 14:13:00,,0827.9,4.99,0.00,26.7,25.8,00.0,35.7,28.5,07.9,0000.0,0003.98,0001.50,0001.11
2021-11-06 14:14:00,,0827.9,5.00,0.00,26.6,25.7,00.0,35.7,28.4,08.0,0000.0,0004.09,0001.55,0001.12
2021-11-06 14:15:00,,0827.9,5.00,0.00,26.6,25.7,00.0,35.7,28.4,08.1,0000.0,0003.81,0001.55,0001.14
2021-11-06 14:16:00,,0827.9,5.00,0.00,26.6,25.7,00.0,35.7,28.3,08.2,0000.0,0003.78,0001.57,0001.15
2021-11-06 14:17:00,,0827.9,5.01,0.00,26.6,25.7,00.0,35.7,28.3,08.4,0000.0,0003.80,0001.61,0001.19
2021-11-06 14:18:00,,0827.9,4.99,0.00,26.6,25.7,00.0,35.7,28.3,08.7,0000.0,0003.85,0001.62,0001.21
2021-11-06 14:19:00,,0827.9,5.00,0.00,26.5,25.6,00.0,35.7,28.3,09.0,0000.0,0003.86,0001.67,0001.24
2021-11-06 14:20:00,,0827.9,5.01,0.00,26.5,25.6,00.0,35.7,28.3,09.2,0000.0,0002.81,0001.71,0001.28
2021-11-06 14:21:00,,0827.9,5.00,0.00,26.5,25.6,00.0,35.7,28.3,09.2,0000.0,0002.80,0001.73,0001.31
2021-11-06 14:22:00,,0827.8,5.00,0.00,26.5,25.6,00.0,35.6,28.3,09.2,0000.0,0002.85,0001.78,0001.34
2021-11-06 14:23:00,,0827.9,4.99,0.00,26.5,25.6,00.0,35.6,28.3,09.3,0000.0,0003.78,0001.83,0001.36
2021-11-06 14:24:00,,0827.9,5.01,0.00,26.5,25.6,00.0,35.6,28.3,09.3,0000.0,0005.37,0001.87,0001.38
2021-11-06 14:25:00,,0828.0,5.00,0.00,26.5,25.6,00.0,35.6,28.3,09.3,0000.0,0005.68,0001.93,0001.41
2021-11-06 14:26:00,,0828.1,5.00,0.00,26.5,25.7,00.0,35.6,28.3,09.2,0000.0,0005.86,0002.01,0001.44
2021-11-06 14:27:00,,0828.1,4.99,0.00,26.5,25.7,00.0,35.6,28.3,09.1,0000.0,0006.22,0002.06,0001.47
2021-11-06 14:28:00,,0828.1,5.00,0.00,26.5,25.7,00.0,35.6,28.3,08.8,0000.0,0006.47,0002.06,0001.47
2021-11-06 14:29:00,,0828.0,5.00,0.00,26.6,25.7,00.0,35.6,28.3,08.7,0000.0,0006.48,0002.08,0001.48
2021-11-06 14:30:00,,0828.0,5.00,0.00,26.6,25.7,00.0,35.6,28.3,08.7,0000.0,0006.31,0002.06,0001.47
2021-11-06 14:31:00,,0828.0,5.00,0.00,26.6,25.8,00.0,35.6,28.4,08.3,0000.0,0006.31,0002.05,0001.44
2021-11-06 14:32:00,,0828.0,5.00,0.00,26.6,25.8,00.0,35.6,28.4,07.9,0000.0,0006.22,0001.99,0001.40
2021-11-06 14:33:00,,0828.0,5.01,0.00,26.6,25.8,00.0,35.6,28.4,08.0,0000.0,0006.13,0001.94,0001.37
2021-11-06 14:34:00,,0828.0,5.01,0.00,26.6,25.8,00.0,35.6,28.4,07.7,0000.0,0005.23,0001.89,0001.33
2021-11-06 14:35:00,,0828.0,4.99,0.00,26.6,25.8,00.0,35.6,28.4,07.4,0000.0,0004.04,0001.81,0001.29
2021-11-06 14:36:00,,0828.0,5.01,0.00,26.6,25.8,00.0,35.6,28.4,07.4,0000.0,0004.07,0001.75,0001.23
2021-11-06 14:37:00,,0828.0,4.99,0.00,26.6,25.8,00.0,35.6,28.4,07.3,0000.0,0003.99,0001.66,0001.17
2021-11-06 14:38:00,,0828.1,5.01,0.00,26.6,25.8,00.0,35.6,28.4,07.7,0000.0,0003.67,0001.61,0001.13
2021-11-06 14:39:00,,0828.0,5.01,0.00,26.6,25.8,00.0,35.6,28.4,07.7,0000.0,0003.47,0001.58,0001.09
2021-11-06 14:40:00,,0828.0,5.01,0.00,26.7,25.8,00.0,35.6,28.4,07.3,0000.0,0003.48,0001.58,0001.07
2021-11-06 14:41:00,,0828.0,4.99,0.00,26.7,25.8,00.0,35.6,28.4,06.9,0000.0,0003.42,0001.54,0001.03
2021-11-06 14:42:00,,0828.0,5.00,0.00,26.7,25.8,00.0,35.6,28.4,07.0,0000.0,0003.37,0001.50,0001.00
2021-11-06 14:43:00,,0828.0,5.00,0.00,26.7,25.8,00.0,35.6,28.4,06.9,0000.0,0003.32,0001.48,0000.99
2021-11-06 14:44:00,,0828.0,5.01,0.00,26.7,25.8,00.0,35.7,28.4,06.4,0000.0,0003.35,0001.47,0000.97
2021-11-06 14:45:00,,0828.0,4.99,0.00,26.7,25.8,00.0,35.7,28.5,06.3,0000.0,0003.38,0001.42,0000.95
2021-11-06 14:46:00,,0828.1,5.00,0.00,26.7,25.8,00.0,35.7,28.5,06.3,0000.0,0003.22,0001.38,0000.93
2021-11-06 14:47:00,,0828.2,5.00,0.00,26.7,25.8,00.0,35.7,28.5,06.3,0000.0,0003.02,0001.31,0000.91
2021-11-06 14:48:00,,0828.1,5.00,0.00,26.7,25.8,00.0,35.7,28.5,06.4,0000.0,0003.87,0001.31,0000.91
2021-11-06 14:49:00,,0828.2,5.00,0.00,26.7,25.8,00.0,35.7,28.5,06.4,0000.0,0003.77,0001.30,0000.90
2021-11-06 14:50:00,,0828.1,5.00,0.00,26.7,25.8,00.0,35.7,28.5,06.4,0000.0,0003.63,0001.23,0000.87
2021-11-06 14:51:00,,0828.0,5.01,0.00,26.7,25.8,00.0,35.7,28.5,06.5,0000.0,0003.61,0001.21,0000.84
2021-11-06 14:52:00,,0827.9,5.00,0.00,26.7,25.8,00.0,35.7,28.5,06.4,0000.0,0003.57,0001.18,0000.83
2021-11-06 14:53:00,,0827.9,4.99,0.00,26.7,25.8,00.0,35.7,28.6,06.4,0000.0,0003.48,0001.14,0000.82
2021-11-06 14:54:00,,0827.9,5.00,0.00,26.8,25.9,00.0,35.7,28.6,06.6,0000.0,0003.56,0001.17,0000.82
2021-11-06 14:55:00,,0827.9,5.01,0.00,26.8,25.9,00.0,35.7,28.6,06.7,0000.0,0004.51,0001.21,0000.83
2021-11-06 14:56:00,,0827.9,5.00,0.00,26.8,25.9,00.0,35.7,28.6,06.7,0000.0,0004.48,0001.26,0000.85
2021-11-06 14:57:00,,0828.0,5.00,0.00,26.8,26.0,00.0,35.7,28.6,07.0,0000.0,0004.52,0001.29,0000.87
2021-11-06 14:58:00,,0828.0,5.00,0.00,26.8,25.9,00.0,35.8,28.6,07.4,0000.0,0004.48,0001.34,0000.89
2021-11-06 14:59:00,,0827.9,5.00,0.00,26.8,26.0,00.0,35.8,28.6,07.9,0000.0,0003.74,0001.34,0000.90
